sat.trackr.live / text

‹ back to catalog

KUIPER-00188

NORAD 67142 · 2025-301K

PAYLOAD ACTIVE UNKNOWN

§ Identity

Operator
Country
US
Launch date
2025-12-16
Launch site
AFETR
Launch vehicle
Mass (kg)
RCS (m²)

External: N2YO · Heavens-Above · Gunter

§ Orbital elements

Epoch: 2026-05-25T03:44:18.488256Z

Period
97.28 min
Inclination
51.9028°
Eccentricity
0.0001685
Mean motion
14.80336269 rev/d
Perigee alt
627.1 km
Apogee alt
629.4 km
Semi-major
7,006.4 km
B*
5.6458e-3
RAAN
70.1040°
Arg perigee
96.2553°
Mean anomaly
263.8601°
Rev number
2,529

§ Raw data

KUIPER-001881 67142U 25301K   26145.15576954  .00043515  00000+0  56458-2 0  99982 67142  51.9028  70.1040 0001685  96.2553 263.8601 14.80336269 25295

JSON: /api/v1/satellites/67142 · /tle

For live sub-satellite position, see the globe view (requires WebGL).

§ Visibility from observer

Set your observer location to see the next 7 days of passes ≥ 10°. The values pass through the URL so the page stays shareable.

No JS? Fill the form by hand. The geolocation button needs JavaScript.